Year,Month,Day,Hour,Minute,Value (Times are PST for temperature in C)
2009,06,23,00,00,11.40
2009,06,23,00,01,11.40
2009,06,23,00,02,11.40
2009,06,23,00,03,11.40
2009,06,23,00,04,11.30
2009,06,23,00,05,11.30
2009,06,23,00,06,11.30
2009,06,23,00,07,11.30
2009,06,23,00,08,11.30
2009,06,23,00,09,11.30
2009,06,23,00,10,11.30
2009,06,23,00,11,11.30
2009,06,23,00,12,11.30
2009,06,23,00,13,11.30
2009,06,23,00,14,11.30
2009,06,23,00,15,11.30
2009,06,23,00,16,11.30
2009,06,23,00,17,11.30
2009,06,23,00,18,11.30
2009,06,23,00,19,11.20
2009,06,23,00,20,11.20
2009,06,23,00,21,11.20
2009,06,23,00,22,11.20
2009,06,23,00,23,11.20
2009,06,23,00,24,11.20
2009,06,23,00,25,11.20
2009,06,23,00,26,11.20
2009,06,23,00,27,11.20
2009,06,23,00,28,11.20
2009,06,23,00,29,11.20
2009,06,23,00,30,11.20
2009,06,23,00,31,11.20
2009,06,23,00,32,11.20
2009,06,23,00,33,11.20
2009,06,23,00,34,11.20
2009,06,23,00,35,11.30
2009,06,23,00,36,11.30
2009,06,23,00,37,11.30
2009,06,23,00,38,11.30
2009,06,23,00,39,11.20
2009,06,23,00,40,11.20
2009,06,23,00,41,11.20
2009,06,23,00,42,11.20
2009,06,23,00,43,11.20
2009,06,23,00,44,11.20
2009,06,23,00,45,11.20
2009,06,23,00,46,11.20
2009,06,23,00,47,11.20
2009,06,23,00,48,11.20
2009,06,23,00,49,11.10
2009,06,23,00,50,11.10
2009,06,23,00,51,11.10
2009,06,23,00,52,11.10
2009,06,23,00,53,11.10
2009,06,23,00,54,11.00
2009,06,23,00,55,11.00
2009,06,23,00,56,10.90
2009,06,23,00,57,10.90
2009,06,23,00,58,10.90
2009,06,23,00,59,10.80
2009,06,23,01,00,10.80
2009,06,23,01,01,10.70
2009,06,23,01,02,10.70
2009,06,23,01,03,10.60
2009,06,23,01,04,10.60
2009,06,23,01,05,10.50
2009,06,23,01,06,10.50
2009,06,23,01,07,10.40
2009,06,23,01,08,10.40
2009,06,23,01,09,10.30
2009,06,23,01,10,10.30
2009,06,23,01,11,10.30
2009,06,23,01,12,10.20
2009,06,23,01,13,10.20
2009,06,23,01,14,10.20
2009,06,23,01,15,10.10
2009,06,23,01,16,10.10
2009,06,23,01,17,10.00
2009,06,23,01,18,10.00
2009,06,23,01,19,9.90
2009,06,23,01,20,9.90
2009,06,23,01,21,9.90
2009,06,23,01,22,9.80
2009,06,23,01,23,9.80
2009,06,23,01,24,9.70
2009,06,23,01,25,9.70
2009,06,23,01,26,9.60
2009,06,23,01,27,9.60
2009,06,23,01,28,9.60
2009,06,23,01,29,9.60
2009,06,23,01,30,9.50
2009,06,23,01,31,9.50
2009,06,23,01,32,9.50
2009,06,23,01,33,9.50
2009,06,23,01,34,9.50
2009,06,23,01,35,9.50
2009,06,23,01,36,9.50
2009,06,23,01,37,9.50
2009,06,23,01,38,9.50
2009,06,23,01,39,9.50
2009,06,23,01,40,9.40
2009,06,23,01,41,9.40
2009,06,23,01,42,9.40
2009,06,23,01,43,9.40
2009,06,23,01,44,9.40
2009,06,23,01,45,9.30
2009,06,23,01,46,9.30
2009,06,23,01,47,9.30
2009,06,23,01,48,9.30
2009,06,23,01,49,9.20
2009,06,23,01,50,9.20
2009,06,23,01,51,9.20
2009,06,23,01,52,9.10
2009,06,23,01,53,9.10
2009,06,23,01,54,9.10
2009,06,23,01,55,9.10
2009,06,23,01,56,9.00
2009,06,23,01,57,9.00
2009,06,23,01,58,9.00
2009,06,23,01,59,8.90
2009,06,23,02,00,8.90
2009,06,23,02,01,8.90
2009,06,23,02,02,8.90
2009,06,23,02,03,8.90
2009,06,23,02,04,8.80
2009,06,23,02,05,8.80
2009,06,23,02,06,8.80
2009,06,23,02,07,8.80
2009,06,23,02,08,8.80
2009,06,23,02,09,8.70
2009,06,23,02,10,8.70
2009,06,23,02,11,8.70
2009,06,23,02,12,8.70
2009,06,23,02,13,8.70
2009,06,23,02,14,8.70
2009,06,23,02,15,8.70
2009,06,23,02,16,8.70
2009,06,23,02,17,8.70
2009,06,23,02,18,8.70
2009,06,23,02,19,8.60
2009,06,23,02,20,8.60
2009,06,23,02,21,8.60
2009,06,23,02,22,8.60
2009,06,23,02,23,8.60
2009,06,23,02,24,8.50
2009,06,23,02,25,8.50
2009,06,23,02,26,8.40
2009,06,23,02,27,8.40
2009,06,23,02,28,8.40
2009,06,23,02,29,8.40
2009,06,23,02,30,8.40
2009,06,23,02,31,8.40
2009,06,23,02,32,8.40
2009,06,23,02,33,8.40
2009,06,23,02,34,8.40
2009,06,23,02,35,8.40
2009,06,23,02,36,8.40
2009,06,23,02,37,8.40
2009,06,23,02,38,8.40
2009,06,23,02,39,8.30
2009,06,23,02,40,8.40
2009,06,23,02,41,8.30
2009,06,23,02,42,8.30
2009,06,23,02,43,8.30
2009,06,23,02,44,8.30
2009,06,23,02,45,8.30
2009,06,23,02,46,8.30
2009,06,23,02,47,8.30
2009,06,23,02,48,8.30
2009,06,23,02,49,8.20
2009,06,23,02,50,8.20
2009,06,23,02,51,8.20
2009,06,23,02,52,8.20
2009,06,23,02,53,8.20
2009,06,23,02,54,8.20
2009,06,23,02,55,8.10
2009,06,23,02,56,8.10
2009,06,23,02,57,8.10
2009,06,23,02,58,8.10
2009,06,23,02,59,8.10
2009,06,23,03,00,8.10
2009,06,23,03,01,8.00
2009,06,23,03,02,8.00
2009,06,23,03,03,8.00
2009,06,23,03,04,8.00
2009,06,23,03,05,8.00
2009,06,23,03,06,8.00
2009,06,23,03,07,7.90
2009,06,23,03,08,7.90
2009,06,23,03,09,7.90
2009,06,23,03,10,7.90
2009,06,23,03,11,7.90
2009,06,23,03,12,7.90
2009,06,23,03,13,7.90
2009,06,23,03,14,7.90
2009,06,23,03,15,7.90
2009,06,23,03,16,7.80
2009,06,23,03,17,7.80
2009,06,23,03,18,7.80
2009,06,23,03,19,7.80
2009,06,23,03,20,7.80
2009,06,23,03,21,7.80
2009,06,23,03,22,7.80
2009,06,23,03,23,7.80
2009,06,23,03,24,7.80
2009,06,23,03,25,7.80
2009,06,23,03,26,7.80
2009,06,23,03,27,7.70
2009,06,23,03,28,7.70
2009,06,23,03,29,7.70
2009,06,23,03,30,7.70
2009,06,23,03,31,7.70
2009,06,23,03,32,7.70
2009,06,23,03,33,7.70
2009,06,23,03,34,7.70
2009,06,23,03,35,7.70
2009,06,23,03,36,7.70
2009,06,23,03,37,7.70
2009,06,23,03,38,7.70
2009,06,23,03,39,7.70
2009,06,23,03,40,7.70
2009,06,23,03,41,7.70
2009,06,23,03,42,7.80
2009,06,23,03,43,7.80
2009,06,23,03,44,7.80
2009,06,23,03,45,7.80
2009,06,23,03,46,7.80
2009,06,23,03,47,7.80
2009,06,23,03,48,7.80
2009,06,23,03,49,7.80
2009,06,23,03,50,7.80
2009,06,23,03,51,7.70
2009,06,23,03,52,7.70
2009,06,23,03,53,7.70
2009,06,23,03,54,7.70
2009,06,23,03,55,7.70
2009,06,23,03,56,7.80
2009,06,23,03,57,7.80
2009,06,23,03,58,7.80
2009,06,23,03,59,7.80
2009,06,23,04,00,7.80
2009,06,23,04,01,7.90
2009,06,23,04,02,7.90
2009,06,23,04,03,7.90
2009,06,23,04,05,8.00
2009,06,23,04,06,8.00
2009,06,23,04,07,8.10
2009,06,23,04,08,8.10
2009,06,23,04,09,8.10
2009,06,23,04,10,8.10
2009,06,23,04,11,8.20
2009,06,23,04,12,8.20
2009,06,23,04,13,8.20
2009,06,23,04,14,8.20
2009,06,23,04,15,8.20
2009,06,23,04,16,8.20
2009,06,23,04,17,8.20
2009,06,23,04,18,8.10
2009,06,23,04,19,8.10
2009,06,23,04,20,8.10
2009,06,23,04,21,8.00
2009,06,23,04,22,8.00
2009,06,23,04,23,7.90
2009,06,23,04,24,7.90
2009,06,23,04,25,7.90
2009,06,23,04,26,7.90
2009,06,23,04,27,7.80
2009,06,23,04,28,7.80
2009,06,23,04,29,7.80
2009,06,23,04,30,7.80
2009,06,23,04,31,7.80
2009,06,23,04,32,7.70
2009,06,23,04,33,7.70
2009,06,23,04,34,7.70
2009,06,23,04,35,7.70
2009,06,23,04,36,7.70
2009,06,23,04,37,7.70
2009,06,23,04,38,7.70
2009,06,23,04,39,7.70
2009,06,23,04,40,7.70
2009,06,23,04,41,7.70
2009,06,23,04,42,7.70
2009,06,23,04,43,7.60
2009,06,23,04,44,7.60
2009,06,23,04,45,7.60
2009,06,23,04,46,7.60
2009,06,23,04,47,7.50
2009,06,23,04,48,7.50
2009,06,23,04,49,7.50
2009,06,23,04,50,7.50
2009,06,23,04,51,7.50
2009,06,23,04,52,7.40
2009,06,23,04,53,7.40
2009,06,23,04,54,7.40
2009,06,23,04,55,7.40
2009,06,23,04,56,7.40
2009,06,23,04,57,7.40
2009,06,23,04,58,7.40
2009,06,23,04,59,7.40
2009,06,23,05,00,7.40
2009,06,23,05,01,7.40
2009,06,23,05,02,7.30
2009,06,23,05,03,7.30
2009,06,23,05,04,7.30
2009,06,23,05,05,7.30
2009,06,23,05,06,7.30
2009,06,23,05,07,7.30
2009,06,23,05,08,7.30
2009,06,23,05,09,7.30
2009,06,23,05,10,7.30
2009,06,23,05,11,7.30
2009,06,23,05,12,7.30
2009,06,23,05,13,7.30
2009,06,23,05,14,7.30
2009,06,23,05,15,7.30
2009,06,23,05,16,7.30
2009,06,23,05,17,7.30
2009,06,23,05,18,7.30
2009,06,23,05,19,7.30
2009,06,23,05,20,7.30
2009,06,23,05,21,7.30
2009,06,23,05,22,7.30
2009,06,23,05,23,7.20
2009,06,23,05,24,7.20
2009,06,23,05,25,7.20
2009,06,23,05,26,7.30
2009,06,23,05,27,7.20
2009,06,23,05,28,7.20
2009,06,23,05,29,7.20
2009,06,23,05,30,7.30
2009,06,23,05,31,7.20
2009,06,23,05,32,7.30
2009,06,23,05,33,7.30
2009,06,23,05,34,7.30
2009,06,23,05,35,7.30
2009,06,23,05,36,7.30
2009,06,23,05,37,7.30
2009,06,23,05,38,7.30
2009,06,23,05,39,7.30
2009,06,23,05,40,7.30
2009,06,23,05,41,7.30
2009,06,23,05,42,7.30
2009,06,23,05,43,7.30
2009,06,23,05,44,7.30
2009,06,23,05,45,7.30
2009,06,23,05,46,7.30
2009,06,23,05,47,7.30
2009,06,23,05,48,7.30
2009,06,23,05,49,7.30
2009,06,23,05,50,7.30
2009,06,23,05,51,7.40
2009,06,23,05,52,7.40
2009,06,23,05,53,7.40
2009,06,23,05,54,7.40
2009,06,23,05,55,7.40
2009,06,23,05,56,7.40
2009,06,23,05,57,7.40
2009,06,23,05,58,7.50
2009,06,23,05,59,7.50
2009,06,23,06,00,7.50
2009,06,23,06,01,7.50
2009,06,23,06,02,7.60
2009,06,23,06,03,7.60
2009,06,23,06,04,7.60
2009,06,23,06,05,7.60
2009,06,23,06,06,7.60
2009,06,23,06,07,7.60
2009,06,23,06,08,7.60
2009,06,23,06,09,7.70
2009,06,23,06,10,7.70
2009,06,23,06,11,7.70
2009,06,23,06,12,7.70
2009,06,23,06,13,7.70
2009,06,23,06,14,7.70
2009,06,23,06,15,7.70
2009,06,23,06,16,7.70
2009,06,23,06,17,7.80
2009,06,23,06,18,7.80
2009,06,23,06,19,7.80
2009,06,23,06,20,7.80
2009,06,23,06,21,7.80
2009,06,23,06,22,7.80
2009,06,23,06,23,7.90
2009,06,23,06,24,7.90
2009,06,23,06,25,7.90
2009,06,23,06,26,7.90
2009,06,23,06,27,7.90
2009,06,23,06,28,8.00
2009,06,23,06,29,8.00
2009,06,23,06,30,8.00
2009,06,23,06,31,8.10
2009,06,23,06,32,8.10
2009,06,23,06,33,8.20
2009,06,23,06,34,8.20
2009,06,23,06,35,8.20
2009,06,23,06,36,8.30
2009,06,23,06,37,8.30
2009,06,23,06,38,8.40
2009,06,23,06,39,8.50
2009,06,23,06,40,8.60
2009,06,23,06,41,8.60
2009,06,23,06,42,8.70
2009,06,23,06,43,8.80
2009,06,23,06,44,8.90
2009,06,23,06,45,9.00
2009,06,23,06,46,9.10
2009,06,23,06,47,9.20
2009,06,23,06,48,9.30
2009,06,23,06,49,9.30
2009,06,23,06,50,9.40
2009,06,23,06,51,9.50
2009,06,23,06,52,9.50
2009,06,23,06,53,9.60
2009,06,23,06,54,9.60
2009,06,23,06,55,9.70
2009,06,23,06,56,9.80
2009,06,23,06,57,9.90
2009,06,23,06,58,9.90
2009,06,23,06,59,10.00
2009,06,23,07,00,10.10
2009,06,23,07,01,10.20
2009,06,23,07,02,10.30
2009,06,23,07,03,10.40
2009,06,23,07,04,10.50
2009,06,23,07,05,10.60
2009,06,23,07,06,10.70
2009,06,23,07,07,10.80
2009,06,23,07,08,10.90
2009,06,23,07,09,11.00
2009,06,23,07,10,11.20
2009,06,23,07,11,11.30
2009,06,23,07,12,11.40
2009,06,23,07,13,11.50
2009,06,23,07,14,11.60
2009,06,23,07,15,11.70
2009,06,23,07,16,11.80
2009,06,23,07,17,11.90
2009,06,23,07,18,12.00
2009,06,23,07,19,12.20
2009,06,23,07,20,12.30
2009,06,23,07,21,12.30
2009,06,23,07,22,12.40
2009,06,23,07,23,12.50
2009,06,23,07,24,12.60
2009,06,23,07,25,12.60
2009,06,23,07,26,12.70
2009,06,23,07,27,12.70
2009,06,23,07,28,12.80
2009,06,23,07,29,12.80
2009,06,23,07,30,12.90
2009,06,23,07,31,12.90
2009,06,23,07,32,13.00
2009,06,23,07,33,13.10
2009,06,23,07,34,13.10
2009,06,23,07,35,13.20
2009,06,23,07,36,13.20
2009,06,23,07,37,13.20
2009,06,23,07,38,13.30
2009,06,23,07,39,13.30
2009,06,23,07,40,13.30
2009,06,23,07,41,13.30
2009,06,23,07,42,13.40
2009,06,23,07,43,13.40
2009,06,23,07,44,13.40
2009,06,23,07,45,13.40
2009,06,23,07,46,13.40
2009,06,23,07,47,13.40
2009,06,23,07,48,13.50
2009,06,23,07,49,13.50
2009,06,23,07,50,13.50
2009,06,23,07,51,13.60
2009,06,23,07,52,13.60
2009,06,23,07,53,13.60
2009,06,23,07,54,13.70
2009,06,23,07,55,13.70
2009,06,23,07,56,13.70
2009,06,23,07,57,13.80
2009,06,23,07,58,13.80
2009,06,23,07,59,13.80
2009,06,23,08,00,13.90
2009,06,23,08,01,13.90
2009,06,23,08,02,14.00
2009,06,23,08,03,14.10
2009,06,23,08,04,14.10
2009,06,23,08,05,14.20
2009,06,23,08,06,14.20
2009,06,23,08,07,14.30
2009,06,23,08,08,14.30
2009,06,23,08,09,14.30
2009,06,23,08,10,14.40
2009,06,23,08,11,14.40
2009,06,23,08,12,14.50
2009,06,23,08,13,14.60
2009,06,23,08,14,14.70
2009,06,23,08,15,14.70
2009,06,23,08,16,14.80
2009,06,23,08,17,14.90
2009,06,23,08,18,14.90
2009,06,23,08,19,15.00
2009,06,23,08,20,15.00
2009,06,23,08,21,15.00
2009,06,23,08,22,15.00
2009,06,23,08,23,15.00
2009,06,23,08,24,15.00
2009,06,23,08,25,15.00
2009,06,23,08,26,15.00
2009,06,23,08,27,15.00
2009,06,23,08,28,15.00
2009,06,23,08,29,15.00
2009,06,23,08,30,15.00
2009,06,23,08,31,15.00
2009,06,23,08,32,15.10
2009,06,23,08,33,15.20
2009,06,23,08,34,15.20
2009,06,23,08,35,15.30
2009,06,23,08,36,15.40
2009,06,23,08,37,15.30
2009,06,23,08,38,15.30
2009,06,23,08,39,15.30
2009,06,23,08,40,15.30
2009,06,23,08,41,15.30
2009,06,23,08,42,15.30
2009,06,23,08,43,15.30
2009,06,23,08,44,15.30
2009,06,23,08,45,15.30
2009,06,23,08,46,15.30
2009,06,23,08,47,15.30
2009,06,23,08,48,15.30
2009,06,23,08,49,15.30
2009,06,23,08,50,15.30
2009,06,23,08,51,15.30
2009,06,23,08,52,15.30
2009,06,23,08,53,15.30
2009,06,23,08,54,15.30
2009,06,23,08,55,15.20
2009,06,23,08,56,15.20
2009,06,23,08,57,15.10
2009,06,23,08,58,15.10
2009,06,23,08,59,15.20
2009,06,23,09,00,15.20
2009,06,23,09,01,15.30
2009,06,23,09,02,15.30
2009,06,23,09,03,15.30
2009,06,23,09,04,15.40
2009,06,23,09,05,15.50
2009,06,23,09,06,15.50
2009,06,23,09,07,15.60
2009,06,23,09,08,15.60
2009,06,23,09,09,15.60
2009,06,23,09,10,15.70
2009,06,23,09,11,15.70
2009,06,23,09,12,15.80
2009,06,23,09,13,15.80
2009,06,23,09,14,15.80
2009,06,23,09,15,15.80
2009,06,23,09,16,15.80
2009,06,23,09,17,15.70
2009,06,23,09,18,15.80
2009,06,23,09,19,15.80
2009,06,23,09,20,15.80
2009,06,23,09,21,15.90
2009,06,23,09,22,15.90
2009,06,23,09,23,15.90
2009,06,23,09,24,15.90
2009,06,23,09,25,15.90
2009,06,23,09,26,15.80
2009,06,23,09,27,15.80
2009,06,23,09,28,15.80
2009,06,23,09,29,15.80
2009,06,23,09,30,15.80
2009,06,23,09,31,15.90
2009,06,23,09,32,16.00
2009,06,23,09,33,16.00
2009,06,23,09,34,16.10
2009,06,23,09,35,16.10
2009,06,23,09,36,16.20
2009,06,23,09,37,16.30
2009,06,23,09,38,16.30
2009,06,23,09,39,16.40
2009,06,23,09,40,16.50
2009,06,23,09,41,16.50
2009,06,23,09,42,16.50
2009,06,23,09,43,16.60
2009,06,23,09,44,16.60
2009,06,23,09,45,16.60
2009,06,23,09,46,16.50
2009,06,23,09,47,16.50
2009,06,23,09,48,16.30
2009,06,23,09,49,16.20
2009,06,23,09,50,16.20
2009,06,23,09,51,16.30
2009,06,23,09,52,16.30
2009,06,23,09,53,16.30
2009,06,23,09,54,16.30
2009,06,23,09,55,16.30
2009,06,23,09,56,16.40
2009,06,23,09,57,16.30
2009,06,23,09,58,16.30
2009,06,23,09,59,16.30
2009,06,23,10,00,16.30
2009,06,23,10,01,16.30
2009,06,23,10,02,16.30
2009,06,23,10,03,16.20
2009,06,23,10,04,16.20
2009,06,23,10,05,16.20
2009,06,23,10,06,16.20
2009,06,23,10,07,16.30
2009,06,23,10,08,16.30
2009,06,23,10,09,16.20
2009,06,23,10,10,16.20
2009,06,23,10,11,16.20
2009,06,23,10,12,16.30
2009,06,23,10,13,16.30
2009,06,23,10,14,16.20
2009,06,23,10,15,16.30
2009,06,23,10,16,16.30
2009,06,23,10,17,16.30
2009,06,23,10,18,16.30
2009,06,23,10,19,16.30
2009,06,23,10,20,16.30
2009,06,23,10,21,16.20
2009,06,23,10,22,16.10
2009,06,23,10,23,16.10
2009,06,23,10,24,16.10
2009,06,23,10,25,16.00
2009,06,23,10,26,15.90
2009,06,23,10,27,15.70
2009,06,23,10,28,15.60
2009,06,23,10,29,15.40
2009,06,23,10,30,15.40
2009,06,23,10,31,15.40
2009,06,23,10,32,15.40
2009,06,23,10,33,15.40
2009,06,23,10,34,15.50
2009,06,23,10,35,15.60
2009,06,23,10,36,15.70
2009,06,23,10,37,15.80
2009,06,23,10,38,15.90
2009,06,23,10,39,15.90
2009,06,23,10,40,16.00
2009,06,23,10,41,16.00
2009,06,23,10,42,15.90
2009,06,23,10,43,15.80
2009,06,23,10,44,15.90
2009,06,23,10,45,15.90
2009,06,23,10,46,15.80
2009,06,23,10,47,15.80
2009,06,23,10,48,15.80
2009,06,23,10,49,15.80
2009,06,23,10,50,15.90
2009,06,23,10,51,15.90
2009,06,23,10,52,16.00
2009,06,23,10,53,16.10
2009,06,23,10,54,16.20
2009,06,23,10,55,16.30
2009,06,23,10,56,16.30
2009,06,23,10,57,16.40
2009,06,23,10,58,16.40
2009,06,23,10,59,16.30
2009,06,23,11,00,16.20
2009,06,23,11,01,16.10
2009,06,23,11,02,16.10
2009,06,23,11,03,16.20
2009,06,23,11,04,16.20
2009,06,23,11,05,16.30
2009,06,23,11,06,16.30
2009,06,23,11,07,16.30
2009,06,23,11,08,16.30
2009,06,23,11,09,16.40
2009,06,23,11,10,16.40
2009,06,23,11,11,16.40
2009,06,23,11,12,16.40
2009,06,23,11,13,16.40
2009,06,23,11,14,16.50
2009,06,23,11,15,16.50
2009,06,23,11,16,16.40
2009,06,23,11,17,16.40
2009,06,23,11,18,16.40
2009,06,23,11,19,16.40
2009,06,23,11,20,16.50
2009,06,23,11,21,16.50
2009,06,23,11,22,16.60
2009,06,23,11,23,16.60
2009,06,23,11,24,16.60
2009,06,23,11,25,16.60
2009,06,23,11,26,16.60
2009,06,23,11,27,16.60
2009,06,23,11,28,16.60
2009,06,23,11,29,16.70
2009,06,23,11,30,16.70
2009,06,23,11,31,16.70
2009,06,23,11,32,16.70
2009,06,23,11,33,16.70
2009,06,23,11,34,16.70
2009,06,23,11,35,16.70
2009,06,23,11,36,16.60
2009,06,23,11,37,16.60
2009,06,23,11,38,16.60
2009,06,23,11,39,16.60
2009,06,23,11,40,16.60
2009,06,23,11,41,16.60
2009,06,23,11,42,16.60
2009,06,23,11,43,16.60
2009,06,23,11,44,16.70
2009,06,23,11,45,16.70
2009,06,23,11,46,16.60
2009,06,23,11,47,16.70
2009,06,23,11,48,16.80
2009,06,23,11,49,16.90
2009,06,23,11,50,16.90
2009,06,23,11,51,16.90
2009,06,23,11,52,16.90
2009,06,23,11,53,16.90
2009,06,23,11,54,16.80
2009,06,23,11,55,16.70
2009,06,23,11,56,16.80
2009,06,23,11,57,16.80
2009,06,23,11,58,16.90
2009,06,23,11,59,16.90
2009,06,23,12,00,16.90
2009,06,23,12,01,16.90
2009,06,23,12,02,16.80
2009,06,23,12,03,16.90
2009,06,23,12,04,17.00
2009,06,23,12,05,17.10
2009,06,23,12,06,17.10
2009,06,23,12,07,17.00
2009,06,23,12,08,16.90
2009,06,23,12,09,16.90
2009,06,23,12,10,16.80
2009,06,23,12,11,16.80
2009,06,23,12,12,16.80
2009,06,23,12,13,16.80
2009,06,23,12,14,16.80
2009,06,23,12,15,16.80
2009,06,23,12,16,16.80
2009,06,23,12,17,16.90
2009,06,23,12,18,16.90
2009,06,23,12,19,16.90
2009,06,23,12,20,16.90
2009,06,23,12,21,16.90
2009,06,23,12,22,16.90
2009,06,23,12,23,17.00
2009,06,23,12,24,17.10
2009,06,23,12,25,17.10
2009,06,23,12,26,17.10
2009,06,23,12,27,17.10
2009,06,23,12,28,17.10
2009,06,23,12,29,17.20
2009,06,23,12,30,17.20
2009,06,23,12,31,17.10
2009,06,23,12,32,17.10
2009,06,23,12,33,17.00
2009,06,23,12,34,16.90
2009,06,23,12,35,16.80
2009,06,23,12,36,16.80
2009,06,23,12,37,16.80
2009,06,23,12,38,16.90
2009,06,23,12,39,16.90
2009,06,23,12,40,16.90
2009,06,23,12,41,17.00
2009,06,23,12,42,17.00
2009,06,23,12,43,17.10
2009,06,23,12,44,17.10
2009,06,23,12,45,17.10
2009,06,23,12,46,17.20
2009,06,23,12,47,17.20
2009,06,23,12,48,17.10
2009,06,23,12,49,17.10
2009,06,23,12,50,17.10
2009,06,23,12,51,17.20
2009,06,23,12,52,17.20
2009,06,23,12,53,17.20
2009,06,23,12,54,17.20
2009,06,23,12,55,17.10
2009,06,23,12,56,17.10
2009,06,23,12,57,17.10
2009,06,23,12,58,17.20
2009,06,23,12,59,17.20
2009,06,23,13,00,17.30
2009,06,23,13,01,17.40
2009,06,23,13,02,17.40
2009,06,23,13,03,17.40
2009,06,23,13,04,17.40
2009,06,23,13,05,17.40
2009,06,23,13,06,17.40
2009,06,23,13,07,17.40
2009,06,23,13,08,17.40
2009,06,23,13,09,17.40
2009,06,23,13,10,17.40
2009,06,23,13,11,17.40
2009,06,23,13,12,17.50
2009,06,23,13,13,17.50
2009,06,23,13,14,17.60
2009,06,23,13,15,17.60
2009,06,23,13,16,17.60
2009,06,23,13,17,17.60
2009,06,23,13,18,17.60
2009,06,23,13,19,17.60
2009,06,23,13,20,17.70
2009,06,23,13,21,17.80
2009,06,23,13,22,17.80
2009,06,23,13,23,17.80
2009,06,23,13,24,17.80
2009,06,23,13,25,17.80
2009,06,23,13,26,17.70
2009,06,23,13,27,17.70
2009,06,23,13,28,17.80
2009,06,23,13,29,17.80
2009,06,23,13,30,18.00
2009,06,23,13,31,18.00
2009,06,23,13,32,18.00
2009,06,23,13,33,17.90
2009,06,23,13,34,17.90
2009,06,23,13,35,18.00
2009,06,23,13,36,18.10
2009,06,23,13,37,18.20
2009,06,23,13,38,18.20
2009,06,23,13,39,18.20
2009,06,23,13,40,18.30
2009,06,23,13,41,18.40
2009,06,23,13,42,18.40
2009,06,23,13,43,18.40
2009,06,23,13,44,18.50
2009,06,23,13,45,18.60
2009,06,23,13,46,18.60
2009,06,23,13,47,18.50
2009,06,23,13,48,18.50
2009,06,23,13,49,18.50
2009,06,23,13,50,18.60
2009,06,23,13,51,18.70
2009,06,23,13,52,18.80
2009,06,23,13,53,18.80
2009,06,23,13,54,18.70
2009,06,23,13,55,18.70
2009,06,23,13,56,18.80
2009,06,23,13,57,18.70
2009,06,23,13,58,18.70
2009,06,23,13,59,18.60
2009,06,23,14,00,18.50
2009,06,23,14,01,18.40
2009,06,23,14,02,18.50
2009,06,23,14,03,18.60
2009,06,23,14,04,18.70
2009,06,23,14,05,18.70
2009,06,23,14,06,18.70
2009,06,23,14,07,18.60
2009,06,23,14,08,18.50
2009,06,23,14,09,18.40
2009,06,23,14,10,18.40
2009,06,23,14,11,18.40
2009,06,23,14,12,18.40
2009,06,23,14,13,18.50
2009,06,23,14,14,18.60
2009,06,23,14,15,18.60
2009,06,23,14,16,18.60
2009,06,23,14,17,18.70
2009,06,23,14,18,18.70
2009,06,23,14,19,18.70
2009,06,23,14,20,18.70
2009,06,23,14,21,18.70
2009,06,23,14,22,18.70
2009,06,23,14,23,18.80
2009,06,23,14,24,18.80
2009,06,23,14,25,18.80
2009,06,23,14,26,18.70
2009,06,23,14,27,18.60
2009,06,23,14,28,18.60
2009,06,23,14,29,18.70
2009,06,23,14,30,18.70
2009,06,23,14,31,18.80
2009,06,23,14,32,18.90
2009,06,23,14,33,18.90
2009,06,23,14,34,18.90
2009,06,23,14,35,19.00
2009,06,23,14,36,19.00
2009,06,23,14,37,19.20
2009,06,23,14,38,19.20
2009,06,23,14,39,19.20
2009,06,23,14,40,19.20
2009,06,23,14,41,19.10
2009,06,23,14,42,19.00
2009,06,23,14,43,18.90
2009,06,23,14,44,18.80
2009,06,23,14,45,18.80
2009,06,23,14,46,18.80
2009,06,23,14,47,18.70
2009,06,23,14,48,18.70
2009,06,23,14,49,18.80
2009,06,23,14,50,18.90
2009,06,23,14,51,18.90
2009,06,23,14,52,18.90
2009,06,23,14,53,18.90
2009,06,23,14,54,18.90
2009,06,23,14,55,18.90
2009,06,23,14,56,19.00
2009,06,23,14,57,19.10
2009,06,23,14,58,19.10
2009,06,23,14,59,19.10
2009,06,23,15,00,19.10
2009,06,23,15,01,19.10
2009,06,23,15,02,19.00
2009,06,23,15,03,19.10
2009,06,23,15,04,19.10
2009,06,23,15,05,19.10
2009,06,23,15,06,19.10
2009,06,23,15,07,19.00
2009,06,23,15,08,18.90
2009,06,23,15,09,18.90
2009,06,23,15,10,18.90
2009,06,23,15,11,18.90
2009,06,23,15,12,18.90
2009,06,23,15,13,19.00
2009,06,23,15,14,19.00
2009,06,23,15,15,19.10
2009,06,23,15,16,19.10
2009,06,23,15,17,19.20
2009,06,23,15,18,19.30
2009,06,23,15,19,19.30
2009,06,23,15,20,19.30
2009,06,23,15,21,19.30
2009,06,23,15,22,19.30
2009,06,23,15,23,19.30
2009,06,23,15,24,19.30
2009,06,23,15,25,19.40
2009,06,23,15,26,19.50
2009,06,23,15,27,19.60
2009,06,23,15,28,19.60
2009,06,23,15,29,19.60
2009,06,23,15,30,19.60
2009,06,23,15,31,19.60
2009,06,23,15,32,19.60
2009,06,23,15,33,19.60
2009,06,23,15,34,19.50
2009,06,23,15,35,19.40
2009,06,23,15,36,19.40
2009,06,23,15,37,19.40
2009,06,23,15,38,19.40
2009,06,23,15,39,19.30
2009,06,23,15,40,19.30
2009,06,23,15,41,19.30
2009,06,23,15,42,19.20
2009,06,23,15,43,19.20
2009,06,23,15,44,19.30
2009,06,23,15,45,19.30
2009,06,23,15,46,19.30
2009,06,23,15,47,19.40
2009,06,23,15,48,19.40
2009,06,23,15,49,19.50
2009,06,23,15,50,19.50
2009,06,23,15,51,19.50
2009,06,23,15,52,19.60
2009,06,23,15,53,19.60
2009,06,23,15,54,19.70
2009,06,23,15,55,19.70
2009,06,23,15,56,19.70
2009,06,23,15,57,19.60
2009,06,23,15,58,19.60
2009,06,23,15,59,19.50
2009,06,23,16,00,19.50
2009,06,23,16,01,19.50
2009,06,23,16,02,19.50
2009,06,23,16,03,19.50
2009,06,23,16,04,19.70
2009,06,23,16,05,19.70
2009,06,23,16,06,19.80
2009,06,23,16,07,19.80
2009,06,23,16,08,19.80
2009,06,23,16,09,19.80
2009,06,23,16,10,19.80
2009,06,23,16,11,19.80
2009,06,23,16,12,19.80
2009,06,23,16,13,19.70
2009,06,23,16,14,19.70
2009,06,23,16,15,19.70
2009,06,23,16,16,19.50
2009,06,23,16,17,19.40
2009,06,23,16,18,19.30
2009,06,23,16,19,19.30
2009,06,23,16,20,19.40
2009,06,23,16,21,19.50
2009,06,23,16,22,19.60
2009,06,23,16,23,19.60
2009,06,23,16,24,19.70
2009,06,23,16,25,19.70
2009,06,23,16,26,19.60
2009,06,23,16,27,19.50
2009,06,23,16,28,19.40
2009,06,23,16,29,19.20
2009,06,23,16,30,19.00
2009,06,23,16,31,18.90
2009,06,23,16,32,18.80
2009,06,23,16,33,18.80
2009,06,23,16,34,18.90
2009,06,23,16,35,19.00
2009,06,23,16,36,19.10
2009,06,23,16,37,19.20
2009,06,23,16,38,19.30
2009,06,23,16,39,19.40
2009,06,23,16,40,19.40
2009,06,23,16,41,19.50
2009,06,23,16,42,19.50
2009,06,23,16,43,19.40
2009,06,23,16,44,19.40
2009,06,23,16,45,19.40
2009,06,23,16,46,19.50
2009,06,23,16,47,19.60
2009,06,23,16,48,19.70
2009,06,23,16,49,19.70
2009,06,23,16,50,19.70
2009,06,23,16,51,19.70
2009,06,23,16,52,19.70
2009,06,23,16,53,19.80
2009,06,23,16,54,19.80
2009,06,23,16,55,19.80
2009,06,23,16,56,19.80
2009,06,23,16,57,19.70
2009,06,23,16,58,19.60
2009,06,23,16,59,19.60
2009,06,23,17,00,19.60
2009,06,23,17,01,19.60
2009,06,23,17,02,19.60
2009,06,23,17,03,19.70
2009,06,23,17,04,19.80
2009,06,23,17,05,19.80
2009,06,23,17,06,19.80
2009,06,23,17,07,19.70
2009,06,23,17,08,19.70
2009,06,23,17,09,19.70
2009,06,23,17,10,19.60
2009,06,23,17,11,19.50
2009,06,23,17,12,19.50
2009,06,23,17,13,19.40
2009,06,23,17,14,19.50
2009,06,23,17,15,19.40
2009,06,23,17,16,19.40
2009,06,23,17,17,19.40
2009,06,23,17,18,19.40
2009,06,23,17,19,19.40
2009,06,23,17,20,19.40
2009,06,23,17,21,19.40
2009,06,23,17,22,19.50
2009,06,23,17,23,19.50
2009,06,23,17,24,19.60
2009,06,23,17,25,19.60
2009,06,23,17,26,19.70
2009,06,23,17,27,19.70
2009,06,23,17,28,19.70
2009,06,23,17,29,19.70
2009,06,23,17,30,19.70
2009,06,23,17,31,19.70
2009,06,23,17,32,19.70
2009,06,23,17,33,19.70
2009,06,23,17,34,19.70
2009,06,23,17,35,19.70